| time (UTC) | temp C | wind direction | speed KPH | gust KPH | rain 1hr cm | rain 24hr cm | rain mn cm | humidity % | barometer mb |
| 20260504041552 | 10 | 131 | 0.0 | 0.0 | 0.00 | 0.00 | 0.00 | 80 | 1017.5 |
| 20260504040111 | 10 | 131 | 0.0 | 0.0 | 0.00 | 0.00 | 0.00 | 78 | 1017.5 |
| 20260504034548 | 10 | 131 | 0.0 | 0.0 | 0.00 | 0.00 | 0.00 | 78 | 1017.4 |
| 20260504033048 | 10 | 131 | 0.0 | 0.0 | 0.00 | 0.00 | 0.00 | 77 | 1017.3 |
| 20260504031551 | 11 | 131 | 0.0 | 0.0 | 0.00 | 0.00 | 0.00 | 75 | 1017.3 |
| 20260504030047 | 11 | 131 | 0.0 | 0.0 | 0.00 | 0.00 | 0.00 | 75 | 1017.3 |
| 20260504024548 | 11 | 131 | 0.0 | 0.0 | 0.00 | 0.00 | 0.00 | 75 | 1017.2 |
| 20260504023054 | 11 | 131 | 0.0 | 0.0 | 0.00 | 0.00 | 0.00 | 73 | 1017.1 |
| 20260504021550 | 11 | 131 | 0.0 | 0.0 | 0.00 | 0.00 | 0.00 | 73 | 1017.0 |
| 20260504020047 | 12 | 131 | 0.0 | 0.0 | 0.00 | 0.00 | 0.00 | 71 | 1016.9 |
| 20260504014557 | 12 | 131 | 0.0 | 0.0 | 0.00 | 0.00 | 0.00 | 70 | 1016.8 |
| 20260504013044 | 13 | 131 | 0.0 | 0.0 | 0.00 | 0.00 | 0.00 | 68 | 1016.8 |
| 20260504011545 | 14 | 131 | 0.0 | 0.0 | 0.00 | 0.00 | 0.00 | 64 | 1016.6 |
| 20260504010050 | 15 | 131 | 0.0 | 0.0 | 0.00 | 0.00 | 0.00 | 60 | 1016.4 |
| 20260504004549 | 16 | 131 | 0.0 | 0.0 | 0.00 | 0.00 | 0.00 | 58 | 1016.4 |
| 20260504003054 | 16 | 131 | 0.0 | 1.6 | 0.00 | 0.00 | 0.00 | 51 | 1016.3 |
| 20260504001600 | 17 | 165 | 0.0 | 3.2 | 0.00 | 0.00 | 0.00 | 48 | 1016.3 |
| 20260504000042 | 18 | 53 | 0.0 | 0.0 | 0.00 | 0.00 | 0.00 | 47 | 1016.4 |
| 20260503234540 | 19 | 50 | 0.0 | 4.8 | 0.00 | 0.00 | 0.00 | 41 | 1016.4 |
| 20260503233042 | 20 | 53 | 0.0 | 4.8 | 0.00 | 0.00 | 0.00 | 38 | 1016.3 |
| 20260503231539 | 22 | 356 | 0.0 | 4.8 | 0.00 | 0.00 | 0.00 | 35 | 1016.5 |
| 20260503230038 | 22 | 170 | 1.6 | 6.4 | 0.00 | 0.00 | 0.00 | 34 | 1016.6 |
| 20260503224537 | 23 | 23 | 0.0 | 6.4 | 0.00 | 0.00 | 0.00 | 35 | 1016.5 |
| 20260503223037 | 23 | 151 | 0.0 | 4.8 | 0.00 | 0.00 | 0.00 | 32 | 1016.7 |
| 20260503221536 | 23 | 82 | 1.6 | 6.4 | 0.00 | 0.00 | 0.00 | 33 | 1016.8 |
| 20260503220034 | 22 | 179 | 0.0 | 4.8 | 0.00 | 0.00 | 0.00 | 34 | 1016.8 |
| 20260503214531 | 22 | 201 | 1.6 | 8.0 | 0.00 | 0.00 | 0.00 | 33 | 1016.7 |
| 20260503213029 | 22 | 231 | 0.0 | 6.4 | 0.00 | 0.00 | 0.00 | 36 | 1017.0 |
| 20260503211526 | 22 | 110 | 1.6 | 6.4 | 0.00 | 0.00 | 0.00 | 38 | 1017.4 |
| 20260503210024 | 22 | 218 | 0.0 | 8.0 | 0.00 | 0.00 | 0.00 | 36 | 1017.4 |
| 20260503204528 | 22 | 166 | 1.6 | 8.0 | 0.00 | 0.00 | 0.00 | 35 | 1017.6 |
| 20260503203020 | 22 | 231 | 0.0 | 4.8 | 0.00 | 0.00 | 0.00 | 35 | 1017.9 |
| 20260503201519 | 22 | 214 | 0.0 | 6.4 | 0.00 | 0.00 | 0.00 | 35 | 1018.1 |
| 20260503200019 | 21 | 213 | 1.6 | 6.4 | 0.00 | 0.00 | 0.00 | 35 | 1018.2 |
| 20260503194514 | 21 | 10 | 1.6 | 11.3 | 0.00 | 0.00 | 0.00 | 32 | 1018.4 |
| 20260503193029 | 21 | 95 | 0.0 | 8.0 | 0.00 | 0.00 | 0.00 | 35 | 1018.7 |
| 20260503191508 | 21 | 217 | 1.6 | 6.4 | 0.00 | 0.00 | 0.00 | 34 | 1018.9 |
| 20260503190009 | 21 | 16 | 0.0 | 8.0 | 0.00 | 0.00 | 0.00 | 37 | 1019.1 |
| 20260503184506 | 20 | 330 | 0.0 | 8.0 | 0.00 | 0.00 | 0.00 | 39 | 1019.4 |
| 20260503183002 | 20 | 223 | 1.6 | 4.8 | 0.00 | 0.00 | 0.00 | 38 | 1019.6 |
| 20260503181620 | 19 | 168 | 0.0 | 4.8 | 0.00 | 0.00 | 0.00 | 45 | 1019.9 |
| 20260503174556 | 18 | 69 | 1.6 | 4.8 | 0.00 | 0.00 | 0.00 | 42 | 1020.2 |
| 20260503173057 | 18 | 320 | 0.0 | 4.8 | 0.00 | 0.00 | 0.00 | 43 | 1020.5 |
| 20260503171556 | 17 | 170 | 0.0 | 6.4 | 0.00 | 0.00 | 0.00 | 41 | 1020.6 |
| 20260503100103 | 5 | 207 | 0.0 | 0.0 | 0.00 | 0.00 | 0.00 | 89 | 1019.7 |
| 20260503081529 | 7 | 152 | 0.0 | 0.0 | 0.00 | 0.00 | 0.00 | 84 | 1018.7 |
| 20260503071527 | 7 | 155 | 0.0 | 0.0 | 0.00 | 0.00 | 0.00 | 86 | 1018.6 |
| 20260503054511 | 8 | 155 | 0.0 | 0.0 | 0.00 | 0.00 | 0.00 | 80 | 1018.5 |
| 20260503053012 | 8 | 155 | 0.0 | 0.0 | 0.00 | 0.00 | 0.00 | 80 | 1018.5 |
| 20260503051509 | 9 | 155 | 0.0 | 0.0 | 0.00 | 0.00 | 0.00 | 78 | 1018.2 |
| 20260503050005 | 8 | 155 | 0.0 | 0.0 | 0.00 | 0.00 | 0.00 | 79 | 1018.1 |
| 20260503044504 | 8 | 155 | 0.0 | 0.0 | 0.00 | 0.00 | 0.00 | 78 | 1017.9 |
| 20260503043101 | 8 | 155 | 0.0 | 0.0 | 0.00 | 0.00 | 0.00 | 77 | 1017.8 |